TimeMST,TemperatureF,Dew PointF,Humidity,Sea Level PressureIn,VisibilityMPH,Wind Direction,Wind SpeedMPH,Gust SpeedMPH,PrecipitationIn,Events,Conditions,WindDirDegrees,DateUTC
12:53 AM,12.9,9.0,84,30.52,10.0,East,4.6,-,N/A,,Clear,80,2013-01-20 07:53:00
1:53 AM,12.0,8.1,84,30.51,10.0,ENE,6.9,-,N/A,,Clear,70,2013-01-20 08:53:00
2:53 AM,10.9,7.0,84,30.51,10.0,East,5.8,-,N/A,,Clear,80,2013-01-20 09:53:00
3:53 AM,12.9,9.0,84,30.49,10.0,East,8.1,-,N/A,,Clear,90,2013-01-20 10:53:00
4:53 AM,12.0,8.1,84,30.50,10.0,ENE,6.9,-,N/A,,Clear,70,2013-01-20 11:53:00
5:53 AM,8.1,3.9,83,30.54,10.0,NE,6.9,-,N/A,,Clear,50,2013-01-20 12:53:00
6:53 AM,8.1,3.9,83,30.55,10.0,East,6.9,-,N/A,,Clear,80,2013-01-20 13:53:00
7:53 AM,10.9,7.0,84,30.56,10.0,East,6.9,-,N/A,,Clear,90,2013-01-20 14:53:00
8:53 AM,15.1,9.0,77,30.56,10.0,East,8.1,-,N/A,,Clear,100,2013-01-20 15:53:00
9:53 AM,19.0,10.9,71,30.56,10.0,East,6.9,-,N/A,,Clear,100,2013-01-20 16:53:00
10:53 AM,25.0,14.0,63,30.51,10.0,East,4.6,-,N/A,,Clear,100,2013-01-20 17:53:00
11:53 AM,32.0,18.0,56,30.45,10.0,Calm,Calm,-,N/A,,Clear,0,2013-01-20 18:53:00
12:53 PM,36.0,19.0,50,30.39,10.0,Variable,4.6,-,N/A,,Clear,0,2013-01-20 19:53:00
1:53 PM,37.9,19.0,47,30.36,10.0,WNW,4.6,-,N/A,,Clear,300,2013-01-20 20:53:00
2:53 PM,39.0,18.0,43,30.36,10.0,West,6.9,-,N/A,,Clear,270,2013-01-20 21:53:00
3:53 PM,37.9,17.1,43,30.35,10.0,WNW,4.6,-,N/A,,Clear,290,2013-01-20 22:53:00
4:53 PM,37.0,17.1,44,30.36,10.0,WNW,5.8,-,N/A,,Clear,290,2013-01-20 23:53:00
5:53 PM,30.9,16.0,54,30.41,10.0,WSW,3.5,-,N/A,,Clear,250,2013-01-21 00:53:00
6:53 PM,28.0,16.0,61,30.43,10.0,WSW,6.9,-,N/A,,Clear,250,2013-01-21 01:53:00
7:53 PM,25.0,15.1,66,30.43,10.0,ENE,4.6,-,N/A,,Clear,70,2013-01-21 02:53:00
8:53 PM,19.9,14.0,78,30.45,10.0,NNE,5.8,-,N/A,,Clear,30,2013-01-21 03:53:00
9:53 PM,19.0,12.9,77,30.46,10.0,NE,4.6,-,N/A,,Clear,40,2013-01-21 04:53:00
10:53 PM,16.0,12.0,84,30.45,10.0,NNE,4.6,-,N/A,,Clear,30,2013-01-21 05:53:00
11:53 PM,15.1,10.9,84,30.43,10.0,NE,5.8,-,N/A,,Clear,40,2013-01-21 06:53:00